Terminal Aerodrome Forecast
Issued by NWS

Home | Current Version | Previous Version | Text Only | Print | Product List | Glossary On
Versions: 1 2 3 4 5 6 7 8 9 10 11 12 13 14 15 16 17 18 19 20 21
000
FTUS41 KBOX 242320
TAFMHT
TAF
KMHT 242320Z 2500/2524 32016G24KT P6SM SKC
     FM250500 33011KT P6SM SKC
     FM251900 26004KT P6SM SCT120
     FM252200 18004KT P6SM SCT110=

USA.gov is the U.S. government's official web portal to all federal, state and local government web resources and services.